Location: Aragnouet
(42.7874°N, 0.2165°E)
Time: 09:45:53
(UTC+00:00)

SL-16 R/B - Pass Details

Date: 09 April 2020
Orbit: 842 x 846 km, 71.0° (Epoch: 04 June)

Event Time Altitude Azimuth Distance (km) Brightness Sun altitude
Rises 23:13:40 0° 336° (NNW) 3,413 6.3 -38.1°
Reaches altitude 10° 23:16:08 10° 338° (NNW) 2,474 5.3 -38.2°
Enters shadow 23:18:47 29° 342° (NNW) 1,513 3.9 -38.3°
